Time,TemperatureF,DewpointF,PressureIn,WindDirection,WindDirectionDegrees,WindSpeedMPH,WindSpeedGustMPH,Humidity,HourlyPrecipIn,Conditions,Clouds,dailyrainin,SoftwareType,DateUTC
2013-10-20 00:04:00,46.6,38.1,29.49,West,270,3.4,5.4,72,0.00,,,0.00,WUHU216HW,2013-10-20 05:04:00,
2013-10-20 00:09:00,46.6,38.1,29.49,WNW,293,2.9,5.4,72,0.00,,,0.00,WUHU216HW,2013-10-20 05:09:00,
2013-10-20 00:14:00,46.4,38.0,29.49,West,270,2.5,4.5,72,0.00,,,0.00,WUHU216HW,2013-10-20 05:14:00,
2013-10-20 00:19:00,46.4,38.0,29.48,WSW,248,2.7,4.3,72,0.00,,,0.00,WUHU216HW,2013-10-20 05:19:00,
2013-10-20 00:24:00,46.3,37.8,29.49,WNW,282,2.4,3.6,72,0.00,,,0.00,WUHU216HW,2013-10-20 05:24:00,
2013-10-20 00:29:00,46.1,37.9,29.48,West,269,3.1,5.4,73,0.00,,,0.00,WUHU216HW,2013-10-20 05:29:00,
2013-10-20 00:34:00,46.1,37.9,29.48,WSW,256,3.1,5.4,73,0.00,,,0.00,WUHU216HW,2013-10-20 05:34:00,
2013-10-20 00:39:00,45.9,37.7,29.48,WNW,286,2.7,4.3,73,0.00,,,0.00,WUHU216HW,2013-10-20 05:39:00,
2013-10-20 00:44:00,45.9,37.7,29.48,West,270,3.1,4.0,73,0.00,,,0.00,WUHU216HW,2013-10-20 05:44:00,
2013-10-20 00:49:00,45.9,38.1,29.48,West,270,2.0,3.4,74,0.00,,,0.00,WUHU216HW,2013-10-20 05:49:00,
2013-10-20 00:54:00,45.7,37.9,29.48,WNW,293,2.5,3.6,74,0.00,,,0.00,WUHU216HW,2013-10-20 05:54:00,
2013-10-20 00:59:00,45.7,38.3,29.48,West,270,1.7,3.8,75,0.00,,,0.00,WUHU216HW,2013-10-20 05:59:00,
2013-10-20 01:05:00,45.7,38.3,29.48,West,274,2.3,4.0,75,0.00,,,0.00,WUHU216HW,2013-10-20 06:05:00,
2013-10-20 01:10:00,45.5,38.1,29.48,West,266,3.0,4.0,75,0.00,,,0.00,WUHU216HW,2013-10-20 06:10:00,
2013-10-20 01:15:00,45.4,37.5,29.48,West,270,2.0,3.4,74,0.00,,,0.00,WUHU216HW,2013-10-20 06:15:00,
2013-10-20 01:20:00,45.4,37.5,29.48,WSW,242,1.6,3.6,74,0.00,,,0.00,WUHU216HW,2013-10-20 06:20:00,
2013-10-20 01:25:00,45.2,37.7,29.47,WSW,244,2.0,3.6,75,0.00,,,0.00,WUHU216HW,2013-10-20 06:25:00,
2013-10-20 01:30:00,45.2,38.1,29.47,WSW,239,3.2,5.1,76,0.00,,,0.00,WUHU216HW,2013-10-20 06:30:00,
2013-10-20 01:35:00,45.2,37.7,29.47,WSW,248,1.8,5.1,75,0.00,,,0.00,WUHU216HW,2013-10-20 06:35:00,
2013-10-20 01:40:00,45.0,37.5,29.47,WSW,246,2.5,5.4,75,0.00,,,0.00,WUHU216HW,2013-10-20 06:40:00,
2013-10-20 01:45:00,45.2,38.1,29.47,SW,225,5.4,5.4,76,0.00,,,0.00,WUHU216HW,2013-10-20 06:45:00,
2013-10-20 01:50:00,45.4,37.9,29.47,West,270,3.4,5.4,75,0.00,,,0.00,WUHU216HW,2013-10-20 06:50:00,
2013-10-20 01:55:00,45.5,38.4,29.47,West,276,1.9,4.3,76,0.00,,,0.00,WUHU216HW,2013-10-20 06:55:00,
2013-10-20 02:01:00,45.4,37.5,29.48,NW,315,1.3,4.3,74,0.00,,,0.00,WUHU216HW,2013-10-20 07:01:00,
2013-10-20 02:06:00,44.6,36.8,29.47,NNW,338,1.1,3.4,74,0.00,,,0.00,WUHU216HW,2013-10-20 07:06:00,
2013-10-20 02:11:00,44.3,37.2,29.48,NW,315,0.0,1.6,76,0.00,,,0.00,WUHU216HW,2013-10-20 07:11:00,
2013-10-20 02:16:00,43.9,36.8,29.48,NW,315,0.0,0.7,76,0.00,,,0.00,WUHU216HW,2013-10-20 07:16:00,
2013-10-20 02:21:00,43.6,36.5,29.48,NW,315,0.0,0.0,76,0.00,,,0.00,WUHU216HW,2013-10-20 07:21:00,
2013-10-20 02:26:00,43.4,36.3,29.48,WNW,293,0.0,0.0,76,0.00,,,0.00,WUHU216HW,2013-10-20 07:26:00,
2013-10-20 02:31:00,43.4,36.6,29.48,WNW,293,0.0,0.0,77,0.00,,,0.00,WUHU216HW,2013-10-20 07:31:00,
2013-10-20 02:36:00,43.2,36.8,29.48,WNW,293,0.0,0.0,78,0.00,,,0.00,WUHU216HW,2013-10-20 07:36:00,
2013-10-20 02:41:00,43.0,36.3,29.48,WNW,293,0.0,0.0,77,0.00,,,0.00,WUHU216HW,2013-10-20 07:41:00,
2013-10-20 02:46:00,42.7,35.9,29.47,WNW,293,0.0,0.0,77,0.00,,,0.00,WUHU216HW,2013-10-20 07:46:00,
2013-10-20 02:52:00,42.3,35.6,29.47,WNW,293,0.0,0.0,77,0.00,,,0.00,WUHU216HW,2013-10-20 07:52:00,
2013-10-20 02:57:00,42.1,35.7,29.47,WNW,293,0.0,0.0,78,0.00,,,0.00,WUHU216HW,2013-10-20 07:57:00,
2013-10-20 03:02:00,42.1,36.0,29.47,WNW,293,0.0,0.0,79,0.00,,,0.00,WUHU216HW,2013-10-20 08:02:00,
2013-10-20 03:07:00,41.8,35.4,29.47,WNW,293,0.0,0.0,78,0.00,,,0.00,WUHU216HW,2013-10-20 08:07:00,
2013-10-20 03:12:00,41.8,35.6,29.47,WNW,293,0.0,0.0,79,0.00,,,0.00,WUHU216HW,2013-10-20 08:12:00,
2013-10-20 03:17:00,41.9,36.2,29.47,NW,315,0.0,0.0,80,0.00,,,0.00,WUHU216HW,2013-10-20 08:17:00,
2013-10-20 03:22:00,41.8,36.0,29.47,NW,315,0.0,0.0,80,0.00,,,0.00,WUHU216HW,2013-10-20 08:22:00,
2013-10-20 03:27:00,41.6,35.8,29.47,NW,315,0.0,0.0,80,0.00,,,0.00,WUHU216HW,2013-10-20 08:27:00,
2013-10-20 03:32:00,41.4,35.6,29.47,NW,315,0.0,0.0,80,0.00,,,0.00,WUHU216HW,2013-10-20 08:32:00,
2013-10-20 03:37:00,41.2,35.5,29.47,NW,315,0.0,0.0,80,0.00,,,0.00,WUHU216HW,2013-10-20 08:37:00,
2013-10-20 03:42:00,41.0,35.3,29.46,NW,315,0.0,0.0,80,0.00,,,0.00,WUHU216HW,2013-10-20 08:42:00,
2013-10-20 03:48:00,40.9,35.1,29.46,NW,315,0.0,0.0,80,0.00,,,0.00,WUHU216HW,2013-10-20 08:48:00,
2013-10-20 03:53:00,40.5,35.1,29.46,WNW,293,0.0,0.0,81,0.00,,,0.00,WUHU216HW,2013-10-20 08:53:00,
2013-10-20 03:58:00,40.3,34.9,29.46,South,180,0.9,1.8,81,0.00,,,0.00,WUHU216HW,2013-10-20 08:58:00,
2013-10-20 04:03:00,40.5,35.7,29.46,SSW,203,0.0,1.8,83,0.00,,,0.00,WUHU216HW,2013-10-20 09:03:00,
2013-10-20 04:08:00,40.7,35.6,29.45,SSW,203,0.4,1.3,82,0.00,,,0.00,WUHU216HW,2013-10-20 09:08:00,
2013-10-20 04:13:00,40.7,35.6,29.45,SSW,203,0.2,1.3,82,0.00,,,0.00,WUHU216HW,2013-10-20 09:13:00,
2013-10-20 04:18:00,40.5,35.4,29.45,SSW,203,0.0,1.1,82,0.00,,,0.00,WUHU216HW,2013-10-20 09:18:00,
2013-10-20 04:23:00,40.1,35.1,29.45,SW,225,0.2,1.8,82,0.00,,,0.00,WUHU216HW,2013-10-20 09:23:00,
2013-10-20 04:28:00,40.3,35.6,29.45,SW,225,0.0,1.8,83,0.00,,,0.00,WUHU216HW,2013-10-20 09:28:00,
2013-10-20 04:33:00,40.3,35.2,29.45,SW,225,0.0,0.0,82,0.00,,,0.00,WUHU216HW,2013-10-20 09:33:00,
2013-10-20 04:38:00,40.0,34.9,29.45,SW,225,0.0,0.0,82,0.00,,,0.00,WUHU216HW,2013-10-20 09:38:00,
2013-10-20 04:44:00,40.0,35.2,29.45,SSW,203,0.0,0.0,83,0.00,,,0.00,WUHU216HW,2013-10-20 09:44:00,
2013-10-20 04:49:00,40.1,35.4,29.45,SW,225,0.0,0.0,83,0.00,,,0.00,WUHU216HW,2013-10-20 09:49:00,
2013-10-20 04:54:00,40.3,35.6,29.45,SSW,203,0.4,1.1,83,0.00,,,0.00,WUHU216HW,2013-10-20 09:54:00,
2013-10-20 04:59:00,40.3,35.6,29.45,SSW,203,0.6,1.1,83,0.00,,,0.00,WUHU216HW,2013-10-20 09:59:00,
2013-10-20 05:04:00,40.1,35.1,29.45,SSW,203,0.0,1.1,82,0.00,,,0.00,WUHU216HW,2013-10-20 10:04:00,
2013-10-20 05:09:00,40.0,35.2,29.45,SSW,203,0.0,0.0,83,0.00,,,0.00,WUHU216HW,2013-10-20 10:09:00,
2013-10-20 05:14:00,40.0,34.9,29.45,SSW,203,0.0,0.0,82,0.00,,,0.00,WUHU216HW,2013-10-20 10:14:00,
2013-10-20 05:19:00,39.8,34.8,29.45,SSW,203,0.0,0.0,82,0.00,,,0.00,WUHU216HW,2013-10-20 10:19:00,
2013-10-20 05:24:00,39.4,34.4,29.44,SSW,203,0.0,0.0,82,0.00,,,0.00,WUHU216HW,2013-10-20 10:24:00,
2013-10-20 05:29:00,39.2,34.6,29.45,SSW,203,0.0,0.0,83,0.00,,,0.00,WUHU216HW,2013-10-20 10:29:00,
2013-10-20 05:34:00,38.7,34.0,29.45,SSW,203,0.0,0.0,83,0.00,,,0.00,WUHU216HW,2013-10-20 10:34:00,
2013-10-20 05:39:00,38.3,33.9,29.45,South,180,0.6,0.9,84,0.00,,,0.00,WUHU216HW,2013-10-20 10:39:00,
2013-10-20 05:45:00,38.3,33.9,29.45,SSE,158,0.0,0.9,84,0.00,,,0.00,WUHU216HW,2013-10-20 10:45:00,
2013-10-20 05:50:00,38.2,33.8,29.45,SSE,158,1.1,1.1,84,0.00,,,0.00,WUHU216HW,2013-10-20 10:50:00,
2013-10-20 05:55:00,38.2,34.0,29.45,SSE,158,0.0,1.1,85,0.00,,,0.00,WUHU216HW,2013-10-20 10:55:00,
2013-10-20 06:00:00,38.3,34.2,29.45,SSE,158,0.0,1.1,85,0.00,,,0.00,WUHU216HW,2013-10-20 11:00:00,
2013-10-20 06:05:00,38.2,34.0,29.45,SSE,158,0.0,0.0,85,0.00,,,0.00,WUHU216HW,2013-10-20 11:05:00,
2013-10-20 06:10:00,38.2,34.3,29.45,SSE,158,0.0,0.0,86,0.00,,,0.00,WUHU216HW,2013-10-20 11:10:00,
2013-10-20 06:15:00,38.0,33.8,29.45,SSE,158,0.0,0.0,85,0.00,,,0.00,WUHU216HW,2013-10-20 11:15:00,
2013-10-20 06:20:00,37.8,33.9,29.45,SSE,158,0.0,0.0,86,0.00,,,0.00,WUHU216HW,2013-10-20 11:20:00,
2013-10-20 06:25:00,37.8,33.9,29.45,SSE,158,0.0,0.0,86,0.00,,,0.00,WUHU216HW,2013-10-20 11:25:00,
2013-10-20 06:30:00,37.8,33.9,29.46,SSE,158,0.0,0.0,86,0.00,,,0.00,WUHU216HW,2013-10-20 11:30:00,
2013-10-20 06:35:00,37.8,33.9,29.46,SSE,158,0.0,0.0,86,0.00,,,0.00,WUHU216HW,2013-10-20 11:35:00,
2013-10-20 06:41:00,37.6,33.8,29.45,SSE,158,0.0,0.0,86,0.00,,,0.00,WUHU216HW,2013-10-20 11:41:00,
2013-10-20 06:46:00,37.6,33.8,29.45,SSE,158,0.0,0.0,86,0.00,,,0.00,WUHU216HW,2013-10-20 11:46:00,
2013-10-20 06:51:00,37.4,33.6,29.45,SSE,158,0.0,0.0,86,0.00,,,0.00,WUHU216HW,2013-10-20 11:51:00,
2013-10-20 06:56:00,37.3,33.7,29.45,SSE,158,0.0,0.0,87,0.00,,,0.00,WUHU216HW,2013-10-20 11:56:00,
2013-10-20 07:01:00,37.4,33.8,29.45,SSE,158,0.0,0.0,87,0.00,,,0.00,WUHU216HW,2013-10-20 12:01:00,
2013-10-20 07:06:00,37.4,33.8,29.45,SSE,158,0.0,0.0,87,0.00,,,0.00,WUHU216HW,2013-10-20 12:06:00,
2013-10-20 07:11:00,37.4,33.8,29.45,SE,135,0.0,0.0,87,0.00,,,0.00,WUHU216HW,2013-10-20 12:11:00,
2013-10-20 07:16:00,37.4,33.8,29.45,SE,135,0.0,0.0,87,0.00,,,0.00,WUHU216HW,2013-10-20 12:16:00,
2013-10-20 07:21:00,37.4,33.8,29.45,SE,135,0.0,0.0,87,0.00,,,0.00,WUHU216HW,2013-10-20 12:21:00,
2013-10-20 07:26:00,37.4,33.8,29.44,SE,135,0.4,0.7,87,0.00,,,0.00,WUHU216HW,2013-10-20 12:26:00,
2013-10-20 07:32:00,37.4,33.8,29.44,SE,135,1.3,1.3,87,0.00,,,0.00,WUHU216HW,2013-10-20 12:32:00,
2013-10-20 07:37:00,37.8,34.8,29.44,SE,135,0.9,1.3,89,0.00,,,0.00,WUHU216HW,2013-10-20 12:37:00,
2013-10-20 07:42:00,38.2,35.2,29.45,South,180,0.4,1.3,89,0.00,,,0.00,WUHU216HW,2013-10-20 12:42:00,
2013-10-20 07:47:00,38.9,36.2,29.45,South,191,1.0,1.6,90,0.00,,,0.00,WUHU216HW,2013-10-20 12:47:00,
2013-10-20 07:52:00,39.6,37.2,29.45,SSW,203,0.0,1.6,91,0.00,,,0.00,WUHU216HW,2013-10-20 12:52:00,
2013-10-20 07:57:00,40.1,37.7,29.46,South,180,0.0,0.4,91,0.00,,,0.00,WUHU216HW,2013-10-20 12:57:00,
2013-10-20 08:02:00,40.7,38.0,29.45,South,180,0.0,0.0,90,0.00,,,0.00,WUHU216HW,2013-10-20 13:02:00,
2013-10-20 08:07:00,41.2,38.8,29.45,SE,146,1.0,2.2,91,0.00,,,0.00,WUHU216HW,2013-10-20 13:07:00,
2013-10-20 08:12:00,41.8,39.3,29.45,SW,225,1.6,2.2,91,0.00,,,0.00,WUHU216HW,2013-10-20 13:12:00,
2013-10-20 08:17:00,42.1,39.4,29.45,South,180,0.9,2.5,90,0.00,,,0.00,WUHU216HW,2013-10-20 13:17:00,
2013-10-20 08:22:00,42.5,39.8,29.45,SSW,205,1.4,3.4,90,0.00,,,0.00,WUHU216HW,2013-10-20 13:22:00,
2013-10-20 08:28:00,42.8,39.9,29.45,SSE,158,1.3,3.4,89,0.00,,,0.00,WUHU216HW,2013-10-20 13:28:00,
2013-10-20 08:33:00,43.0,40.1,29.45,SSE,161,1.4,3.6,89,0.00,,,0.00,WUHU216HW,2013-10-20 13:33:00,
2013-10-20 08:38:00,43.2,39.9,29.46,SSE,163,1.5,3.6,88,0.00,,,0.00,WUHU216HW,2013-10-20 13:38:00,
2013-10-20 08:43:00,43.6,40.2,29.46,South,181,2.4,4.0,88,0.00,,,0.00,WUHU216HW,2013-10-20 13:43:00,
2013-10-20 08:48:00,43.9,40.6,29.46,SSE,158,2.0,4.0,88,0.00,,,0.00,WUHU216HW,2013-10-20 13:48:00,
2013-10-20 08:53:00,44.3,40.7,29.46,SE,135,3.4,3.4,87,0.00,,,0.00,WUHU216HW,2013-10-20 13:53:00,
2013-10-20 08:58:00,44.6,41.1,29.45,South,180,4.0,4.0,87,0.00,,,0.00,WUHU216HW,2013-10-20 13:58:00,
2013-10-20 09:03:00,44.8,40.9,29.46,SSE,158,3.8,4.0,86,0.00,,,0.00,WUHU216HW,2013-10-20 14:03:00,
2013-10-20 09:08:00,45.2,41.2,29.45,SSE,161,2.6,4.0,86,0.00,,,0.00,WUHU216HW,2013-10-20 14:08:00,
2013-10-20 09:13:00,45.5,41.6,29.46,SSW,203,1.8,4.0,86,0.00,,,0.00,WUHU216HW,2013-10-20 14:13:00,
2013-10-20 09:18:00,46.1,41.9,29.45,SSE,163,2.0,3.4,85,0.00,,,0.00,WUHU216HW,2013-10-20 14:18:00,
2013-10-20 09:23:00,46.4,42.0,29.46,SW,225,2.7,5.4,84,0.00,,,0.00,WUHU216HW,2013-10-20 14:23:00,
2013-10-20 09:29:00,46.8,42.0,29.46,South,182,2.4,5.4,83,0.00,,,0.00,WUHU216HW,2013-10-20 14:29:00,
2013-10-20 09:34:00,47.0,41.8,29.46,SW,225,5.1,5.4,82,0.00,,,0.00,WUHU216HW,2013-10-20 14:34:00,
2013-10-20 09:39:00,47.2,41.9,29.45,SSE,158,1.3,6.9,82,0.00,,,0.00,WUHU216HW,2013-10-20 14:39:00,
2013-10-20 09:44:00,47.7,42.1,29.45,SSW,203,3.6,6.9,81,0.00,,,0.00,WUHU216HW,2013-10-20 14:44:00,
2013-10-20 09:49:00,48.2,42.7,29.45,South,178,2.8,4.7,81,0.00,,,0.00,WUHU216HW,2013-10-20 14:49:00,
2013-10-20 09:54:00,48.6,42.7,29.44,SSW,203,2.9,3.8,80,0.00,,,0.00,WUHU216HW,2013-10-20 14:54:00,
2013-10-20 09:59:00,49.1,43.2,29.44,SE,135,2.5,4.3,80,0.00,,,0.00,WUHU216HW,2013-10-20 14:59:00,
2013-10-20 10:04:00,49.7,42.8,29.44,South,180,3.8,6.3,77,0.00,,,0.00,WUHU216HW,2013-10-20 15:04:00,
2013-10-20 10:09:00,50.0,42.8,29.44,SW,225,3.6,6.3,76,0.00,,,0.00,WUHU216HW,2013-10-20 15:09:00,
2013-10-20 10:14:00,50.8,43.5,29.44,South,180,2.2,4.7,76,0.00,,,0.00,WUHU216HW,2013-10-20 15:14:00,
2013-10-20 10:19:00,51.3,43.7,29.44,SSW,208,3.4,6.3,75,0.00,,,0.00,WUHU216HW,2013-10-20 15:19:00,
2013-10-20 10:24:00,51.8,43.8,29.44,South,187,4.3,7.6,74,0.00,,,0.00,WUHU216HW,2013-10-20 15:24:00,
2013-10-20 10:30:00,52.6,43.8,29.44,SSW,203,5.8,9.2,72,0.00,,,0.00,WUHU216HW,2013-10-20 15:30:00,
2013-10-20 10:34:00,53.3,44.1,29.44,South,184,4.1,9.2,71,0.00,,,0.00,WUHU216HW,2013-10-20 15:34:00,
2013-10-20 10:40:00,53.8,44.3,29.44,West,260,4.4,9.2,70,0.00,,,0.00,WUHU216HW,2013-10-20 15:40:00,
2013-10-20 10:45:00,54.5,44.6,29.44,WSW,248,6.3,9.2,69,0.00,,,0.00,WUHU216HW,2013-10-20 15:45:00,
2013-10-20 10:50:00,55.1,44.3,29.44,WSW,247,5.5,7.8,67,0.00,,,0.00,WUHU216HW,2013-10-20 15:50:00,
2013-10-20 10:55:00,55.8,45.4,29.44,South,180,5.4,7.8,68,0.00,,,0.00,WUHU216HW,2013-10-20 15:55:00,
2013-10-20 11:00:00,56.3,44.3,29.43,SW,214,5.3,6.9,64,0.00,,,0.00,WUHU216HW,2013-10-20 16:00:00,
2013-10-20 11:05:00,56.9,44.8,29.43,SW,223,4.9,7.4,64,0.00,,,0.00,WUHU216HW,2013-10-20 16:05:00,
2013-10-20 11:10:00,57.6,45.1,29.43,SSW,192,3.8,7.4,63,0.00,,,0.00,WUHU216HW,2013-10-20 16:10:00,
2013-10-20 11:15:00,58.0,45.0,29.43,SSW,207,3.4,7.4,62,0.00,,,0.00,WUHU216HW,2013-10-20 16:15:00,
2013-10-20 11:20:00,58.1,44.4,29.43,West,260,3.4,7.4,60,0.00,,,0.00,WUHU216HW,2013-10-20 16:20:00,
2013-10-20 11:25:00,58.5,44.7,29.43,SW,225,5.4,6.7,60,0.00,,,0.00,WUHU216HW,2013-10-20 16:25:00,
2013-10-20 11:30:00,59.0,45.2,29.43,SW,225,5.4,9.4,60,0.00,,,0.00,WUHU216HW,2013-10-20 16:30:00,
2013-10-20 11:35:00,59.4,45.1,29.42,SSW,203,4.3,9.4,59,0.00,,,0.00,WUHU216HW,2013-10-20 16:35:00,
2013-10-20 11:37:00,59.8,44.9,29.42,SSW,193,2.7,6.7,58,0.00,,,0.00,WUHU216HW,2013-10-20 16:37:00,
2013-10-20 11:42:00,60.1,45.3,29.42,SSW,211,4.5,6.9,58,0.00,,,0.00,WUHU216HW,2013-10-20 16:42:00,
2013-10-20 11:47:00,60.3,44.6,29.42,SW,218,6.1,9.8,56,0.00,,,0.00,WUHU216HW,2013-10-20 16:47:00,
2013-10-20 11:52:00,60.7,45.4,29.42,SW,219,6.4,9.8,57,0.00,,,0.00,WUHU216HW,2013-10-20 16:52:00,
2013-10-20 11:57:00,61.0,45.7,29.41,SW,225,3.1,9.2,57,0.00,,,0.00,WUHU216HW,2013-10-20 16:57:00,
2013-10-20 12:02:00,61.6,44.7,29.42,WSW,257,6.5,9.8,54,0.00,,,0.00,WUHU216HW,2013-10-20 17:02:00,
2013-10-20 12:08:00,61.7,46.8,29.41,SSW,211,3.5,9.8,58,0.00,,,0.00,WUHU216HW,2013-10-20 17:08:00,
2013-10-20 12:13:00,62.1,45.7,29.41,SSW,203,5.8,7.2,55,0.00,,,0.00,WUHU216HW,2013-10-20 17:13:00,
2013-10-20 12:18:00,62.6,46.2,29.41,West,270,6.9,7.6,55,0.00,,,0.00,WUHU216HW,2013-10-20 17:18:00,
2013-10-20 12:23:00,62.5,45.0,29.41,SSW,199,6.7,8.7,53,0.00,,,0.00,WUHU216HW,2013-10-20 17:23:00,
2013-10-20 12:28:00,62.6,45.2,29.40,SW,218,5.9,8.7,53,0.00,,,0.00,WUHU216HW,2013-10-20 17:28:00,
2013-10-20 12:33:00,63.0,46.5,29.40,SW,225,6.0,8.1,55,0.00,,,0.00,WUHU216HW,2013-10-20 17:33:00,
2013-10-20 12:38:00,63.7,45.2,29.40,SSW,202,4.0,8.1,51,0.00,,,0.00,WUHU216HW,2013-10-20 17:38:00,
2013-10-20 12:43:00,64.4,47.4,29.40,SSE,160,4.3,7.6,54,0.00,,,0.00,WUHU216HW,2013-10-20 17:43:00,
2013-10-20 12:48:00,64.4,45.4,29.39,SW,218,4.4,6.9,50,0.00,,,0.00,WUHU216HW,2013-10-20 17:48:00,
2013-10-20 12:53:00,65.0,45.9,29.39,South,184,5.9,8.1,50,0.00,,,0.00,WUHU216HW,2013-10-20 17:53:00,
2013-10-20 12:58:00,65.2,46.5,29.39,SE,135,7.2,8.9,51,0.00,,,0.00,WUHU216HW,2013-10-20 17:58:00,
2013-10-20 13:03:00,65.5,45.8,29.39,SW,217,4.9,8.9,49,0.00,,,0.00,WUHU216HW,2013-10-20 18:03:00,
2013-10-20 13:08:00,65.9,45.0,29.38,SW,225,9.6,12.8,47,0.00,,,0.00,WUHU216HW,2013-10-20 18:08:00,
2013-10-20 13:14:00,65.9,45.6,29.38,SW,222,4.9,12.8,48,0.00,,,0.00,WUHU216HW,2013-10-20 18:14:00,
2013-10-20 13:19:00,66.4,46.7,29.37,SSW,203,7.6,9.6,49,0.00,,,0.00,WUHU216HW,2013-10-20 18:19:00,
2013-10-20 13:24:00,67.1,45.6,29.37,SSW,202,6.3,7.8,46,0.00,,,0.00,WUHU216HW,2013-10-20 18:24:00,
2013-10-20 13:29:00,67.5,45.4,29.37,SW,214,6.2,8.3,45,0.00,,,0.00,WUHU216HW,2013-10-20 18:29:00,
2013-10-20 13:34:00,67.7,46.1,29.36,SSW,213,5.0,8.7,46,0.00,,,0.00,WUHU216HW,2013-10-20 18:34:00,
2013-10-20 13:39:00,68.0,46.5,29.36,SSE,158,5.1,8.7,46,0.00,,,0.00,WUHU216HW,2013-10-20 18:39:00,
2013-10-20 13:44:00,68.4,45.5,29.36,South,184,5.1,11.4,44,0.00,,,0.00,WUHU216HW,2013-10-20 18:44:00,
2013-10-20 13:49:00,68.6,45.7,29.35,SW,217,5.0,11.4,44,0.00,,,0.00,WUHU216HW,2013-10-20 18:49:00,
2013-10-20 13:54:00,68.9,46.0,29.36,SW,235,10.0,11.2,44,0.00,,,0.00,WUHU216HW,2013-10-20 18:54:00,
2013-10-20 13:59:00,69.1,45.0,29.35,WSW,248,8.9,11.9,42,0.00,,,0.00,WUHU216HW,2013-10-20 18:59:00,
2013-10-20 14:05:00,69.3,45.7,29.35,SSW,209,5.5,11.9,43,0.00,,,0.00,WUHU216HW,2013-10-20 19:05:00,
2013-10-20 14:10:00,69.7,45.5,29.35,South,181,4.4,8.9,42,0.00,,,0.00,WUHU216HW,2013-10-20 19:10:00,
2013-10-20 14:15:00,69.1,44.4,29.35,SW,227,6.8,12.3,41,0.00,,,0.00,WUHU216HW,2013-10-20 19:15:00,
2013-10-20 14:20:00,68.6,45.1,29.35,SSW,213,5.3,12.3,43,0.00,,,0.00,WUHU216HW,2013-10-20 19:20:00,
2013-10-20 14:25:00,68.4,44.9,29.35,WSW,256,7.2,12.1,43,0.00,,,0.00,WUHU216HW,2013-10-20 19:25:00,
2013-10-20 14:30:00,68.8,45.3,29.35,South,181,4.1,12.1,43,0.00,,,0.00,WUHU216HW,2013-10-20 19:30:00,
2013-10-20 14:35:00,69.3,45.2,29.34,SSW,203,10.7,12.8,42,0.00,,,0.00,WUHU216HW,2013-10-20 19:35:00,
2013-10-20 14:40:00,69.8,45.1,29.34,NW,315,7.6,12.8,41,0.00,,,0.00,WUHU216HW,2013-10-20 19:40:00,
2013-10-20 14:45:00,70.4,44.2,29.34,SW,226,6.9,9.2,39,0.00,,,0.00,WUHU216HW,2013-10-20 19:45:00,
2013-10-20 14:50:00,70.7,44.6,29.34,SW,225,7.6,12.1,39,0.00,,,0.00,WUHU216HW,2013-10-20 19:50:00,
2013-10-20 14:56:00,70.7,44.6,29.34,West,263,8.5,12.8,39,0.00,,,0.00,WUHU216HW,2013-10-20 19:56:00,
2013-10-20 15:01:00,70.9,45.5,29.34,WSW,248,10.1,12.8,40,0.00,,,0.00,WUHU216HW,2013-10-20 20:01:00,
2013-10-20 15:06:00,70.7,44.6,29.34,WSW,252,5.8,10.1,39,0.00,,,0.00,WUHU216HW,2013-10-20 20:06:00,
2013-10-20 15:11:00,71.1,43.4,29.34,West,261,8.1,11.6,37,0.00,,,0.00,WUHU216HW,2013-10-20 20:11:00,
2013-10-20 15:16:00,71.1,44.1,29.34,WSW,238,8.3,16.8,38,0.00,,,0.00,WUHU216HW,2013-10-20 20:16:00,
2013-10-20 15:21:00,71.3,44.3,29.34,NNW,338,5.6,16.8,38,0.00,,,0.00,WUHU216HW,2013-10-20 20:21:00,
2013-10-20 15:26:00,71.3,44.3,29.34,WSW,244,7.0,11.2,38,0.00,,,0.00,WUHU216HW,2013-10-20 20:26:00,
2013-10-20 15:31:00,71.6,43.8,29.34,West,270,6.7,15.0,37,0.00,,,0.00,WUHU216HW,2013-10-20 20:31:00,
2013-10-20 15:36:00,71.1,43.4,29.34,WNW,289,8.1,15.0,37,0.00,,,0.00,WUHU216HW,2013-10-20 20:36:00,
2013-10-20 15:42:00,71.3,43.6,29.34,SW,225,8.3,14.3,37,0.00,,,0.00,WUHU216HW,2013-10-20 20:42:00,
2013-10-20 15:47:00,71.6,42.4,29.34,West,268,13.3,15.9,35,0.00,,,0.00,WUHU216HW,2013-10-20 20:47:00,
2013-10-20 15:52:00,71.8,44.0,29.34,SW,224,8.7,17.2,37,0.00,,,0.00,WUHU216HW,2013-10-20 20:52:00,
2013-10-20 15:57:00,71.6,43.8,29.34,WSW,244,6.4,17.2,37,0.00,,,0.00,WUHU216HW,2013-10-20 20:57:00,
2013-10-20 16:02:00,71.8,42.6,29.34,SW,225,9.2,16.3,35,0.00,,,0.00,WUHU216HW,2013-10-20 21:02:00,
2013-10-20 16:07:00,72.0,44.9,29.34,WSW,248,6.5,9.2,38,0.00,,,0.00,WUHU216HW,2013-10-20 21:07:00,
2013-10-20 16:12:00,71.8,42.6,29.34,SSW,208,10.2,14.1,35,0.00,,,0.00,WUHU216HW,2013-10-20 21:12:00,
2013-10-20 16:17:00,71.6,43.8,29.34,WNW,293,6.3,14.1,37,0.00,,,0.00,WUHU216HW,2013-10-20 21:17:00,
2013-10-20 16:22:00,71.8,44.0,29.34,WSW,254,4.4,12.5,37,0.00,,,0.00,WUHU216HW,2013-10-20 21:22:00,
2013-10-20 16:28:00,71.8,41.8,29.34,WSW,245,8.3,12.8,34,0.00,,,0.00,WUHU216HW,2013-10-20 21:28:00,
2013-10-20 16:33:00,71.6,41.0,29.34,West,270,16.1,16.1,33,0.00,,,0.00,WUHU216HW,2013-10-20 21:33:00,
2013-10-20 16:38:00,71.3,41.3,29.34,WNW,293,8.5,16.1,34,0.00,,,0.00,WUHU216HW,2013-10-20 21:38:00,
2013-10-20 16:43:00,70.9,41.1,29.34,West,270,7.6,16.1,34,0.00,,,0.00,WUHU216HW,2013-10-20 21:43:00,
2013-10-20 16:48:00,70.9,41.1,29.35,West,270,5.8,10.5,34,0.00,,,0.00,WUHU216HW,2013-10-20 21:48:00,
2013-10-20 16:53:00,70.7,41.6,29.35,WNW,293,7.6,10.5,35,0.00,,,0.00,WUHU216HW,2013-10-20 21:53:00,
2013-10-20 16:58:00,70.7,41.6,29.35,West,275,6.3,9.8,35,0.00,,,0.00,WUHU216HW,2013-10-20 21:58:00,
2013-10-20 17:03:00,70.7,40.9,29.35,West,274,5.3,9.8,34,0.00,,,0.00,WUHU216HW,2013-10-20 22:03:00,
2013-10-20 17:08:00,70.9,41.8,29.35,West,269,4.2,8.5,35,0.00,,,0.00,WUHU216HW,2013-10-20 22:08:00,
2013-10-20 17:13:00,70.9,41.8,29.35,West,277,4.2,8.5,35,0.00,,,0.00,WUHU216HW,2013-10-20 22:13:00,
2013-10-20 17:19:00,70.6,40.7,29.35,SW,225,7.6,11.4,34,0.00,,,0.00,WUHU216HW,2013-10-20 22:19:00,
2013-10-20 17:24:00,70.2,40.3,29.35,West,259,7.4,11.4,34,0.00,,,0.00,WUHU216HW,2013-10-20 22:24:00,
2013-10-20 17:29:00,70.0,41.0,29.35,WNW,293,4.0,10.7,35,0.00,,,0.00,WUHU216HW,2013-10-20 22:29:00,
2013-10-20 17:34:00,69.7,40.6,29.36,West,276,9.4,17.0,35,0.00,,,0.00,WUHU216HW,2013-10-20 22:34:00,
2013-10-20 17:39:00,69.5,40.4,29.36,West,270,9.8,17.0,35,0.00,,,0.00,WUHU216HW,2013-10-20 22:39:00,
2013-10-20 17:44:00,69.1,40.2,29.36,WSW,248,6.3,9.8,35,0.00,,,0.00,WUHU216HW,2013-10-20 22:44:00,
2013-10-20 17:49:00,68.9,40.7,29.36,WNW,293,5.1,9.8,36,0.00,,,0.00,WUHU216HW,2013-10-20 22:49:00,
2013-10-20 17:54:00,68.8,41.3,29.36,West,264,5.0,9.2,37,0.00,,,0.00,WUHU216HW,2013-10-20 22:54:00,
2013-10-20 17:59:00,68.4,41.0,29.36,WNW,293,4.0,9.2,37,0.00,,,0.00,WUHU216HW,2013-10-20 22:59:00,
2013-10-20 18:04:00,68.2,40.8,29.36,WNW,293,6.0,6.9,37,0.00,,,0.00,WUHU216HW,2013-10-20 23:04:00,
2013-10-20 18:10:00,68.0,41.4,29.36,West,268,5.5,6.9,38,0.00,,,0.00,WUHU216HW,2013-10-20 23:10:00,
2013-10-20 18:15:00,67.9,41.2,29.36,WNW,293,11.9,11.9,38,0.00,,,0.00,WUHU216HW,2013-10-20 23:15:00,
2013-10-20 18:20:00,67.7,41.8,29.36,WSW,248,6.3,11.9,39,0.00,,,0.00,WUHU216HW,2013-10-20 23:20:00,
2013-10-20 18:25:00,67.3,41.5,29.37,WSW,248,2.5,11.9,39,0.00,,,0.00,WUHU216HW,2013-10-20 23:25:00,
2013-10-20 18:30:00,67.3,41.5,29.37,West,270,6.9,6.9,39,0.00,,,0.00,WUHU216HW,2013-10-20 23:30:00,
2013-10-20 18:35:00,67.1,41.3,29.37,West,270,7.8,7.8,39,0.00,,,0.00,WUHU216HW,2013-10-20 23:35:00,
2013-10-20 18:40:00,67.0,40.4,29.37,West,281,4.6,7.8,38,0.00,,,0.00,WUHU216HW,2013-10-20 23:40:00,
2013-10-20 18:45:00,66.8,41.0,29.37,WSW,255,3.4,7.8,39,0.00,,,0.00,WUHU216HW,2013-10-20 23:45:00,
2013-10-20 18:50:00,66.6,40.9,29.38,WNW,293,4.3,6.3,39,0.00,,,0.00,WUHU216HW,2013-10-20 23:50:00,
2013-10-20 18:55:00,66.4,40.7,29.38,West,263,3.6,5.4,39,0.00,,,0.00,WUHU216HW,2013-10-20 23:55:00,
2013-10-20 19:00:00,66.1,41.0,29.39,WSW,248,3.4,5.4,40,0.00,,,0.00,WUHU216HW,2013-10-21 00:00:00,
2013-10-20 19:06:00,65.9,41.5,29.39,WSW,256,3.8,5.4,41,0.00,,,0.00,WUHU216HW,2013-10-21 00:06:00,
2013-10-20 19:11:00,65.7,41.3,29.39,West,269,3.9,6.3,41,0.00,,,0.00,WUHU216HW,2013-10-21 00:11:00,
2013-10-20 19:16:00,65.5,41.1,29.39,WSW,248,5.1,9.6,41,0.00,,,0.00,WUHU216HW,2013-10-21 00:16:00,
2013-10-20 19:21:00,65.3,41.0,29.39,West,270,2.9,9.6,41,0.00,,,0.00,WUHU216HW,2013-10-21 00:21:00,
2013-10-20 19:26:00,65.2,41.4,29.39,WSW,250,3.8,5.4,42,0.00,,,0.00,WUHU216HW,2013-10-21 00:26:00,
2013-10-20 19:31:00,65.0,41.9,29.39,West,264,3.1,6.3,43,0.00,,,0.00,WUHU216HW,2013-10-21 00:31:00,
2013-10-20 19:36:00,64.8,41.7,29.39,West,264,4.3,6.3,43,0.00,,,0.00,WUHU216HW,2013-10-21 00:36:00,
2013-10-20 19:41:00,64.6,42.0,29.39,WNW,293,3.1,5.4,44,0.00,,,0.00,WUHU216HW,2013-10-21 00:41:00,
2013-10-20 19:46:00,64.4,42.0,29.40,West,259,4.4,6.3,44,0.00,,,0.00,WUHU216HW,2013-10-21 00:46:00,
2013-10-20 19:51:00,64.3,41.8,29.40,West,265,2.6,6.3,44,0.00,,,0.00,WUHU216HW,2013-10-21 00:51:00,
2013-10-20 19:56:00,64.1,42.1,29.40,WNW,293,3.4,5.4,45,0.00,,,0.00,WUHU216HW,2013-10-21 00:56:00,
2013-10-20 20:01:00,63.9,42.0,29.40,West,260,2.6,5.4,45,0.00,,,0.00,WUHU216HW,2013-10-21 01:01:00,
2013-10-20 20:06:00,63.9,42.0,29.40,WSW,258,3.7,4.5,45,0.00,,,0.00,WUHU216HW,2013-10-21 01:06:00,
2013-10-20 20:11:00,63.7,42.4,29.40,West,270,5.1,5.1,46,0.00,,,0.00,WUHU216HW,2013-10-21 01:11:00,
2013-10-20 20:17:00,63.7,42.4,29.41,WSW,254,3.7,6.0,46,0.00,,,0.00,WUHU216HW,2013-10-21 01:17:00,
2013-10-20 20:22:00,63.4,42.1,29.41,WSW,257,2.8,6.0,46,0.00,,,0.00,WUHU216HW,2013-10-21 01:22:00,
2013-10-20 20:27:00,63.4,42.7,29.41,WSW,250,3.3,5.6,47,0.00,,,0.00,WUHU216HW,2013-10-21 01:27:00,
2013-10-20 20:32:00,63.4,42.7,29.41,WSW,252,4.3,5.8,47,0.00,,,0.00,WUHU216HW,2013-10-21 01:32:00,
2013-10-20 20:37:00,63.4,42.7,29.41,West,270,5.8,5.8,47,0.00,,,0.00,WUHU216HW,2013-10-21 01:37:00,
2013-10-20 20:42:00,63.4,42.7,29.41,SSW,203,4.0,5.8,47,0.00,,,0.00,WUHU216HW,2013-10-21 01:42:00,
2013-10-20 20:47:00,63.2,42.5,29.41,WSW,248,5.4,6.9,47,0.00,,,0.00,WUHU216HW,2013-10-21 01:47:00,
2013-10-20 20:52:00,63.2,42.5,29.41,WSW,255,5.9,7.6,47,0.00,,,0.00,WUHU216HW,2013-10-21 01:52:00,
2013-10-20 20:57:00,63.0,42.9,29.41,SW,225,4.7,7.6,48,0.00,,,0.00,WUHU216HW,2013-10-21 01:57:00,
2013-10-20 21:02:00,63.0,42.9,29.41,WSW,253,4.3,7.2,48,0.00,,,0.00,WUHU216HW,2013-10-21 02:02:00,
2013-10-20 21:08:00,63.0,42.9,29.41,WSW,253,4.0,7.2,48,0.00,,,0.00,WUHU216HW,2013-10-21 02:08:00,
2013-10-20 21:13:00,62.6,42.6,29.41,West,262,2.3,7.2,48,0.00,,,0.00,WUHU216HW,2013-10-21 02:13:00,
2013-10-20 21:18:00,62.6,43.2,29.41,West,270,4.5,8.5,49,0.00,,,0.00,WUHU216HW,2013-10-21 02:18:00,
2013-10-20 21:23:00,62.6,43.2,29.42,WSW,248,5.6,8.5,49,0.00,,,0.00,WUHU216HW,2013-10-21 02:23:00,
2013-10-20 21:28:00,62.5,43.0,29.41,WSW,258,3.5,8.5,49,0.00,,,0.00,WUHU216HW,2013-10-21 02:28:00,
2013-10-20 21:33:00,62.3,42.8,29.42,WNW,293,5.4,5.4,49,0.00,,,0.00,WUHU216HW,2013-10-21 02:33:00,
2013-10-20 21:38:00,62.3,42.8,29.42,WNW,293,3.4,5.8,49,0.00,,,0.00,WUHU216HW,2013-10-21 02:38:00,
2013-10-20 21:43:00,62.1,43.3,29.42,WSW,255,3.0,7.6,50,0.00,,,0.00,WUHU216HW,2013-10-21 02:43:00,
2013-10-20 21:48:00,61.9,43.1,29.42,WSW,248,4.0,7.6,50,0.00,,,0.00,WUHU216HW,2013-10-21 02:48:00,
2013-10-20 21:53:00,61.9,43.1,29.42,West,266,2.5,5.1,50,0.00,,,0.00,WUHU216HW,2013-10-21 02:53:00,
2013-10-20 21:59:00,61.7,42.9,29.42,West,270,5.4,5.4,50,0.00,,,0.00,WUHU216HW,2013-10-21 02:59:00,
2013-10-20 22:04:00,61.6,42.8,29.43,SW,225,5.1,5.4,50,0.00,,,0.00,WUHU216HW,2013-10-21 03:04:00,
2013-10-20 22:09:00,61.4,43.1,29.42,West,270,3.4,5.4,51,0.00,,,0.00,WUHU216HW,2013-10-21 03:09:00,
2013-10-20 22:14:00,61.2,43.4,29.43,WSW,245,3.6,6.3,52,0.00,,,0.00,WUHU216HW,2013-10-21 03:14:00,
2013-10-20 22:19:00,61.2,43.4,29.43,SSE,158,3.1,6.3,52,0.00,,,0.00,WUHU216HW,2013-10-21 03:19:00,
2013-10-20 22:24:00,61.0,43.7,29.43,SW,225,2.5,4.0,53,0.00,,,0.00,WUHU216HW,2013-10-21 03:24:00,
2013-10-20 22:29:00,60.8,43.6,29.43,WSW,243,2.8,4.7,53,0.00,,,0.00,WUHU216HW,2013-10-21 03:29:00,
2013-10-20 22:34:00,60.8,43.1,29.43,West,271,3.3,5.1,52,0.00,,,0.00,WUHU216HW,2013-10-21 03:34:00,
2013-10-20 22:39:00,60.5,44.2,29.44,NNW,338,1.6,5.1,55,0.00,,,0.00,WUHU216HW,2013-10-21 03:39:00,
2013-10-20 22:44:00,60.1,43.8,29.44,NW,315,1.1,3.1,55,0.00,,,0.00,WUHU216HW,2013-10-21 03:44:00,
2013-10-20 22:49:00,59.9,43.7,29.44,NW,315,1.8,2.0,55,0.00,,,0.00,WUHU216HW,2013-10-21 03:49:00,
2013-10-20 22:55:00,59.9,43.7,29.44,WNW,296,1.0,2.0,55,0.00,,,0.00,WUHU216HW,2013-10-21 03:55:00,
2013-10-20 23:00:00,59.9,43.2,29.44,West,270,1.6,3.6,54,0.00,,,0.00,WUHU216HW,2013-10-21 04:00:00,
2013-10-20 23:01:00,60.1,43.4,29.44,West,270,1.8,3.6,54,0.00,,,0.00,WUHU216HW,2013-10-21 04:01:00,
2013-10-20 23:02:00,60.1,43.4,29.44,West,271,2.3,3.6,54,0.00,,,0.00,WUHU216HW,2013-10-21 04:02:00,
2013-10-20 23:03:00,60.1,43.4,29.44,WSW,255,2.8,3.6,54,0.00,,,0.00,WUHU216HW,2013-10-21 04:03:00,
2013-10-20 23:08:00,60.1,43.4,29.44,WSW,248,2.0,3.6,54,0.00,,,0.00,WUHU216HW,2013-10-21 04:08:00,
2013-10-20 23:13:00,59.9,43.2,29.44,WSW,252,2.3,4.0,54,0.00,,,0.00,WUHU216HW,2013-10-21 04:13:00,
2013-10-20 23:18:00,60.1,43.4,29.44,WSW,240,2.8,5.4,54,0.00,,,0.00,WUHU216HW,2013-10-21 04:18:00,
2013-10-20 23:24:00,59.9,43.2,29.44,West,272,2.4,5.4,54,0.00,,,0.00,WUHU216HW,2013-10-21 04:24:00,
2013-10-20 23:29:00,59.8,43.0,29.45,West,270,2.2,4.7,54,0.00,,,0.00,WUHU216HW,2013-10-21 04:29:00,
2013-10-20 23:34:00,59.8,43.6,29.45,West,281,2.0,4.7,55,0.00,,,0.00,WUHU216HW,2013-10-21 04:34:00,
2013-10-20 23:39:00,59.4,43.7,29.45,WNW,293,1.0,4.0,56,0.00,,,0.00,WUHU216HW,2013-10-21 04:39:00,
2013-10-20 23:44:00,59.2,43.5,29.45,WNW,293,1.8,3.4,56,0.00,,,0.00,WUHU216HW,2013-10-21 04:44:00,
2013-10-20 23:49:00,59.2,43.5,29.45,WSW,248,3.4,3.6,56,0.00,,,0.00,WUHU216HW,2013-10-21 04:49:00,
2013-10-20 23:54:00,59.0,43.3,29.45,West,267,2.3,3.6,56,0.00,,,0.00,WUHU216HW,2013-10-21 04:54:00,
2013-10-20 23:59:00,59.0,43.3,29.45,West,270,1.8,2.9,56,0.00,,,0.00,WUHU216HW,2013-10-21 04:59:00,